• Em Portugal
  • Lista de países
  • Para 7 dias
  • Temperatura da água
  • Mapas de satélite
  • Mapa do tempo
  • Widgets de tempo
  • user-avatar
    Iniciar Sessão

    Previsão horária em Belize

    Hoje, 23 Janeiro, Terça-feira

    Tempo Temperatura Precipitação Vento Pressão Humidade
    00:00 +24°C° 0 mm 3 m/s 760 mmHg 98%
    01:00 +24°C° 0,2 mm 3 m/s 760 mmHg 99%
    02:00 +24°C° 0,2 mm 3 m/s 759 mmHg 99%
    03:00 +24°C° 0,2 mm 3 m/s 759 mmHg 99%
    04:00 +24°C° 0,5 mm 3 m/s 759 mmHg 99%
    05:00 +24°C° 0,5 mm 3 m/s 760 mmHg 99%
    06:00 +24°C° 0,5 mm 3 m/s 760 mmHg 99%
    07:00 +25°C° 0,3 mm 3 m/s 760 mmHg 95%
    08:00 +26°C° 0,3 mm 2 m/s 761 mmHg 91%
    09:00 +27°C° 0,3 mm 2 m/s 761 mmHg 87%
    10:00 +28°C° 0,3 mm 3 m/s 761 mmHg 82%
    11:00 +29°C° 0,3 mm 3 m/s 761 mmHg 78%
    12:00 +30°C° 0,3 mm 3 m/s 761 mmHg 73%
    13:00 +30°C° 0,3 mm 3 m/s 760 mmHg 70%
    14:00 +31°C° 0,3 mm 3 m/s 760 mmHg 67%
    15:00 +32°C° 0,3 mm 4 m/s 759 mmHg 64%
    16:00 +29°C° 0,2 mm 4 m/s 759 mmHg 71%
    17:00 +28°C° 0,2 mm 4 m/s 759 mmHg 79%
    18:00 +26°C° 0,2 mm 4 m/s 760 mmHg 87%
    19:00 +25°C° 0,1 mm 4 m/s 760 mmHg 91%
    20:00 +25°C° 0,1 mm 4 m/s 760 mmHg 94%
    21:00 +23°C° 0,1 mm 4 m/s 761 mmHg 98%
    22:00 +23°C° 0,1 mm 4 m/s 761 mmHg 98%
    23:00 +23°C° 0,1 mm 4 m/s 761 mmHg 98%

    Amanhã, 24 Janeiro, Quarta-feira

    Tempo Temperatura Precipitação Vento Pressão Humidade
    00:00 +23°C° 0,1 mm 4 m/s 761 mmHg 99%
    01:00 +23°C° 0,5 mm 4 m/s 761 mmHg 99%
    02:00 +23°C° 0,5 mm 4 m/s 761 mmHg 99%
    03:00 +22°C° 0,5 mm 3 m/s 761 mmHg 99%
    04:00 +22°C° 0,5 mm 3 m/s 761 mmHg 99%
    05:00 +22°C° 0,5 mm 3 m/s 761 mmHg 99%
    06:00 +22°C° 0,5 mm 3 m/s 761 mmHg 99%
    07:00 +24°C° 0,6 mm 3 m/s 762 mmHg 97%
    08:00 +25°C° 0,6 mm 3 m/s 762 mmHg 95%
    09:00 +26°C° 0,6 mm 3 m/s 763 mmHg 93%
    10:00 +26°C° 0,6 mm 3 m/s 763 mmHg 89%
    11:00 +27°C° 0,6 mm 3 m/s 763 mmHg 85%
    12:00 +28°C° 0,6 mm 3 m/s 762 mmHg 80%
    13:00 +29°C° 0,1 mm 3 m/s 762 mmHg 74%
    14:00 +30°C° 0,1 mm 3 m/s 761 mmHg 67%
    15:00 +30°C° 0,1 mm 3 m/s 760 mmHg 60%
    16:00 +29°C° 0,2 mm 3 m/s 760 mmHg 68%
    17:00 +27°C° 0,2 mm 3 m/s 760 mmHg 77%
    18:00 +25°C° 0,2 mm 3 m/s 761 mmHg 86%
    19:00 +25°C° 0,2 mm 3 m/s 761 mmHg 89%
    20:00 +23°C° 0,2 mm 4 m/s 762 mmHg 92%
    21:00 +23°C° 0,2 mm 4 m/s 763 mmHg 96%
    22:00 +23°C° 0,5 mm 4 m/s 763 mmHg 97%
    23:00 +23°C° 0,5 mm 4 m/s 763 mmHg 98%

    Depois de amanhã, 25 Janeiro, Quinta-feira

    Tempo Temperatura Precipitação Vento Pressão Humidade
    00:00 +23°C° 0,5 mm 4 m/s 763 mmHg 99%
    01:00 +22°C° 0,5 mm 4 m/s 762 mmHg 99%
    02:00 +22°C° 0,5 mm 4 m/s 762 mmHg 99%
    03:00 +22°C° 0,5 mm 4 m/s 762 mmHg 99%
    04:00 +22°C° 0,8 mm 4 m/s 762 mmHg 99%
    05:00 +22°C° 0,8 mm 4 m/s 762 mmHg 98%
    06:00 +22°C° 0,8 mm 4 m/s 762 mmHg 98%
    07:00 +23°C° 0,5 mm 4 m/s 763 mmHg 97%
    08:00 +23°C° 0,5 mm 4 m/s 763 mmHg 96%
    09:00 +25°C° 0,5 mm 4 m/s 764 mmHg 95%
    10:00 +26°C° 0,7 mm 4 m/s 763 mmHg 92%
    11:00 +26°C° 0,7 mm 4 m/s 763 mmHg 90%
    12:00 +27°C° 0,7 mm 4 m/s 763 mmHg 88%
    13:00 +27°C° 0,6 mm 4 m/s 762 mmHg 86%
    14:00 +28°C° 0,6 mm 3 m/s 761 mmHg 84%
    15:00 +28°C° 0,6 mm 3 m/s 761 mmHg 82%
    16:00 +27°C° 0,6 mm 3 m/s 761 mmHg 87%
    17:00 +25°C° 0,6 mm 4 m/s 761 mmHg 92%
    18:00 +23°C° 0,6 mm 4 m/s 761 mmHg 98%
    19:00 +23°C° 0,8 mm 4 m/s 762 mmHg 98%
    20:00 +22°C° 0,8 mm 4 m/s 762 mmHg 98%
    21:00 +22°C° 0,8 mm 4 m/s 763 mmHg 99%
    22:00 +22°C° 1,3 mm 4 m/s 763 mmHg 99%
    23:00 +22°C° 1,3 mm 4 m/s 762 mmHg 99%

    26 Janeiro, Sexta-feira

    Tempo Temperatura Precipitação Vento Pressão Humidade
    00:00 +22°C° 1,3 mm 5 m/s 762 mmHg 99%
    01:00 +22°C° 1,9 mm 5 m/s 762 mmHg 99%
    02:00 +22°C° 1,9 mm 5 m/s 761 mmHg 99%
    03:00 +22°C° 1,9 mm 5 m/s 761 mmHg 99%
    04:00 +22°C° 1,8 mm 5 m/s 761 mmHg 99%
    05:00 +22°C° 1,8 mm 5 m/s 761 mmHg 99%
    06:00 +22°C° 1,8 mm 5 m/s 762 mmHg 99%
    07:00 +23°C° 1,5 mm 5 m/s 762 mmHg 98%
    08:00 +25°C° 1,5 mm 5 m/s 763 mmHg 96%
    09:00 +26°C° 1,5 mm 5 m/s 763 mmHg 95%
    10:00 +26°C° 0,9 mm 5 m/s 763 mmHg 94%
    11:00 +26°C° 0,9 mm 5 m/s 763 mmHg 93%
    12:00 +27°C° 0,9 mm 5 m/s 762 mmHg 92%
    13:00 +26°C° 0,8 mm 5 m/s 761 mmHg 93%
    14:00 +26°C° 0,8 mm 4 m/s 761 mmHg 93%
    15:00 +26°C° 0,8 mm 4 m/s 760 mmHg 93%
    16:00 +25°C° 0,7 mm 4 m/s 760 mmHg 95%
    17:00 +25°C° 0,7 mm 5 m/s 760 mmHg 96%
    18:00 +23°C° 0,7 mm 5 m/s 760 mmHg 98%
    19:00 +23°C° 1,7 mm 5 m/s 760 mmHg 98%
    20:00 +23°C° 1,7 mm 5 m/s 761 mmHg 98%
    21:00 +23°C° 1,7 mm 5 m/s 761 mmHg 99%
    22:00 +23°C° 2,3 mm 5 m/s 761 mmHg 99%
    23:00 +23°C° 2,3 mm 5 m/s 761 mmHg 99%

    27 Janeiro, Sábado

    Tempo Temperatura Precipitação Vento Pressão Humidade
    00:00 +23°C° 2,3 mm 5 m/s 761 mmHg 99%
    01:00 +23°C° 2 mm 4 m/s 760 mmHg 99%
    02:00 +23°C° 2 mm 4 m/s 760 mmHg 99%
    03:00 +22°C° 2 mm 4 m/s 760 mmHg 99%
    04:00 +22°C° 1,1 mm 4 m/s 760 mmHg 99%
    05:00 +22°C° 1,1 mm 3 m/s 760 mmHg 99%
    06:00 +22°C° 1,1 mm 3 m/s 760 mmHg 99%
    07:00 +24°C° 1,5 mm 3 m/s 761 mmHg 97%
    08:00 +25°C° 1,5 mm 4 m/s 761 mmHg 95%
    09:00 +26°C° 1,5 mm 4 m/s 762 mmHg 94%
    10:00 +27°C° 1,5 mm 4 m/s 761 mmHg 92%
    11:00 +27°C° 1,5 mm 4 m/s 761 mmHg 91%
    12:00 +28°C° 1,5 mm 3 m/s 761 mmHg 90%
    13:00 +28°C° 1 mm 3 m/s 760 mmHg 90%
    14:00 +28°C° 1 mm 3 m/s 759 mmHg 90%
    15:00 +27°C° 1 mm 2 m/s 759 mmHg 90%
    16:00 +26°C° 0,3 mm 2 m/s 759 mmHg 92%
    17:00 +25°C° 0,3 mm 2 m/s 759 mmHg 95%
    18:00 +24°C° 0,3 mm 3 m/s 759 mmHg 97%
    19:00 +24°C° 0,2 mm 3 m/s 760 mmHg 98%
    20:00 +24°C° 0,2 mm 2 m/s 760 mmHg 98%
    21:00 +23°C° 0,2 mm 2 m/s 760 mmHg 98%
    22:00 +23°C° 0,1 mm 2 m/s 760 mmHg 98%
    23:00 +23°C° 0,1 mm 2 m/s 760 mmHg 99%

    28 Janeiro, Domingo

    Tempo Temperatura Precipitação Vento Pressão Humidade
    00:00 +23°C° 0,1 mm 2 m/s 760 mmHg 99%
    01:00 +23°C° 0,2 mm 2 m/s 760 mmHg 99%
    02:00 +23°C° 0,2 mm 2 m/s 760 mmHg 99%
    03:00 +23°C° 0,2 mm 2 m/s 759 mmHg 99%
    04:00 +23°C° 0,8 mm 2 m/s 760 mmHg 99%
    05:00 +23°C° 0,8 mm 2 m/s 760 mmHg 99%
    06:00 +23°C° 0,8 mm 2 m/s 760 mmHg 99%
    07:00 +24°C° 0,7 mm 2 m/s 761 mmHg 97%
    08:00 +25°C° 0,7 mm 2 m/s 761 mmHg 96%
    09:00 +25°C° 0,7 mm 2 m/s 762 mmHg 94%
    10:00 +26°C° 0,2 mm 2 m/s 762 mmHg 89%
    11:00 +28°C° 0,2 mm 2 m/s 761 mmHg 84%
    12:00 +29°C° 0,2 mm 2 m/s 761 mmHg 79%
    13:00 +28°C° 0,4 mm 3 m/s 760 mmHg 83%
    14:00 +28°C° 0,4 mm 3 m/s 759 mmHg 87%
    15:00 +28°C° 0,4 mm 3 m/s 759 mmHg 90%
    16:00 +27°C° 0,2 mm 3 m/s 759 mmHg 92%
    17:00 +26°C° 0,2 mm 3 m/s 759 mmHg 94%
    18:00 +25°C° 0,2 mm 3 m/s 760 mmHg 97%
    19:00 +24°C° 0,4 mm 3 m/s 760 mmHg 97%
    20:00 +24°C° 0,4 mm 3 m/s 761 mmHg 98%
    21:00 +24°C° 0,4 mm 3 m/s 761 mmHg 98%
    22:00 +22°C° 0,6 mm 3 m/s 761 mmHg 98%
    23:00 +22°C° 0,6 mm 3 m/s 761 mmHg 99%
    Mostrar mais